Location: Brachbach
(49.1847°N, 9.7240°E)
Time: 10:26:29
(UTC+00:00)

Cosmos 2227 Rocket - Visible Passes

Search period start: 06 October 2024 00:00
Search period end: 16 October 2024 00:00
Orbit: 838 x 844 km, 71.0° (Epoch: 05 October)

Date Brightness Start Highest point End Pass type
(mag) Time Alt. Az. Time Alt. Az. Time Alt. Az.
06 Oct 4.6 00:33:46 18° NE 00:33:46 18° NE 00:35:09 10° NE visible
06 Oct 3.7 02:15:34 26° NNW 02:15:34 26° NNW 02:18:56 10° NNE visible
07 Oct 4.8 00:19:00 15° NE 00:19:00 15° NE 00:19:56 10° NE visible
07 Oct 3.9 02:00:48 24° NNW 02:00:48 24° NNW 02:03:45 10° NNE visible
07 Oct 4.5 03:44:08 10° NNW 03:44:50 10° NNW 03:45:32 10° NNW visible
08 Oct 5.0 00:04:13 12° NE 00:04:13 12° NE 00:04:42 10° NE visible
08 Oct 4.1 01:46:02 22° N 01:46:02 22° N 01:48:33 10° NNE visible
08 Oct 4.4 03:28:29 10° NNW 03:29:33 10° NNW 03:30:36 10° NNW visible
08 Oct 5.1 23:49:26 10° NE 23:49:26 10° NE 23:49:27 10° NE visible
09 Oct 4.3 01:31:14 20° N 01:31:14 20° N 01:33:21 10° NNE visible
09 Oct 4.4 03:13:02 10° NW 03:14:14 11° NNW 03:15:35 10° N visible
10 Oct 4.4 01:16:25 18° N 01:16:25 18° N 01:18:10 10° NNE visible
10 Oct 4.5 02:58:13 11° NNW 02:58:56 11° NNW 03:00:31 10° N visible
11 Oct 4.6 01:01:36 17° N 01:01:36 17° N 01:02:57 10° NNE visible
11 Oct 4.5 02:43:24 11° NNW 02:43:39 11° NNW 02:45:25 10° N visible
12 Oct 4.8 00:46:47 15° NNE 00:46:47 15° NNE 00:47:44 10° NNE visible
12 Oct 4.5 02:28:34 12° NNW 02:28:34 12° NNW 02:30:18 10° N visible
13 Oct 4.9 00:31:56 13° NNE 00:31:56 13° NNE 00:32:33 10° NNE visible
13 Oct 4.6 02:13:44 12° NNW 02:13:44 12° NNW 02:15:11 10° N visible
14 Oct 5.1 00:17:06 11° NNE 00:17:06 11° NNE 00:17:20 10° NNE visible
14 Oct 4.7 01:58:53 12° NNW 01:58:53 12° NNW 02:00:02 10° N visible
15 Oct 4.7 01:44:02 11° N 01:44:02 11° N 01:44:54 10° N visible
15 Oct 4.6 05:13:55 10° N 05:16:30 13° NNE 05:19:04 10° NE visible
